Weather History for Houghton, MI

Change the Weather History Date:

Saturday, March 9, 2013

  Actual Average Record
Temperature  
Mean Temperature 29 °F -  
Max Temperature 32 °F 30 °F 50 °F (1977)
Min Temperature 26 °F 14 °F -17 °F (1984)
Degree Days  
Heating Degree Days 36    
Moisture  
Dew Point 27 °F    
Average Humidity 91    
Maximum Humidity 100    
Minimum Humidity 61    
Precipitation  
Precipitation 0.23 in - - ()
Sea Level Pressure  
Sea Level Pressure 29.97 in    
Wind  
Wind Speed 7 mph (SE)    
Max Wind Speed 15 mph    
Max Gust Speed 24 mph    
Visibility 3 miles    
Events Fog , Rain , Snow    
Averages and records for this station are not official NWS values.
T = Trace of Precipitation, MM = Missing Value Source: NWS Daily Summary

Daily Weather History Graph

Daily Weather History Graph

Search for Another Location

Airport:

Trip Planner

Search our weather history database for the weather conditions in past years. The results will help you decide how hot, cold, wet, or windy it might be!

Date:

Astronomy

Mar. 09, 2013 Rise Set
Actual Time 7:18 AM EST 6:51 PM EST
Civil Twilight 6:47 AM EST 7:21 PM EST
Nautical Twilight 6:12 AM EST 7:57 PM EST
Astronomical Twilight 5:36 AM EST 8:33 PM EST
Moon 5:49 AM EST (3/9) 4:48 PM EST (3/9)
Length of Visible Light 12h 34m
Length of Day
11h 33m
Waning Crescent, 5% of the Moon is Illuminated
Mar 9
Waning Crescent
Mar 11
New
Mar 19
First Quarter
Mar 27
Full
Apr 3
Last Quarter

Hourly Weather History & Observations

Time (EST) Temp. Windchill Dew Point Humidity Pressure Visibility Wind Dir Wind Speed Gust Speed Precip Events Conditions
12:53 AM 32.0 °F 28.7 °F 19.9 °F 61% 30.22 in 10.0 mi SW 3.5 mph - N/A   Clear
1:53 AM 30.9 °F 25.2 °F 19.9 °F 64% 30.21 in 10.0 mi SSW 5.8 mph - N/A   Clear
2:53 AM 28.9 °F - 19.9 °F 69% 30.20 in 10.0 mi Calm Calm - N/A   Clear
3:53 AM 26.1 °F 21.9 °F 19.0 °F 75% 30.17 in 10.0 mi SE 3.5 mph - N/A   Clear
4:53 AM 28.0 °F 21.7 °F 19.9 °F 72% 30.16 in 10.0 mi South 5.8 mph - N/A   Clear
5:53 AM 28.9 °F 21.1 °F 21.0 °F 72% 30.15 in 10.0 mi SSE 8.1 mph - N/A   Clear
6:53 AM 28.0 °F 21.7 °F 21.0 °F 75% 30.14 in 10.0 mi ESE 5.8 mph - N/A   Clear
7:53 AM 28.0 °F 24.2 °F 21.0 °F 75% 30.13 in 10.0 mi East 3.5 mph - N/A   Mostly Cloudy
8:53 AM 30.2 °F 24.3 °F 21.2 °F 69% 30.07 in 10.0 mi East 5.8 mph - N/A   Overcast
9:53 AM 30.0 °F 26.5 °F 23.0 °F 75% 30.12 in 10.0 mi SSE 3.5 mph - N/A   Overcast
10:28 AM 30.2 °F 22.6 °F 21.2 °F 69% 30.07 in 2.5 mi SW 8.1 mph - 0.00 in Snow Light Snow
10:34 AM 30.2 °F 22.6 °F 24.8 °F 80% 30.07 in 0.8 mi SW 8.1 mph - 0.00 in Snow Light Snow
10:53 AM 28.9 °F - 26.1 °F 89% 30.10 in 0.8 mi Calm Calm - 0.01 in Snow Light Snow
11:00 AM 28.4 °F 24.6 °F 26.6 °F 93% 30.05 in 1.2 mi Variable 3.5 mph - 0.00 in Snow Light Snow
11:14 AM 28.4 °F - 26.6 °F 93% 30.05 in 3.0 mi Calm Calm - 0.00 in Snow Light Snow
11:22 AM 30.2 °F - 26.6 °F 86% 30.05 in 6.0 mi Calm Calm - 0.00 in   Overcast
11:32 AM 30.2 °F 21.9 °F 26.6 °F 86% 30.05 in 0.8 mi South 9.2 mph - 0.00 in Snow Light Snow
11:41 AM 28.4 °F 19.7 °F 26.6 °F 93% 30.05 in 0.5 mi SSE 9.2 mph - 0.01 in Fog , Snow Snow
11:53 AM 28.9 °F 21.9 °F 27.0 °F 92% 30.07 in 0.2 mi SE 6.9 mph - 0.02 in Fog , Snow Snow
12:19 PM 28.4 °F 19.7 °F 26.6 °F 93% 30.01 in 0.5 mi ESE 9.2 mph - 0.02 in Fog , Snow Light Snow
12:43 PM 28.4 °F 18.0 °F 28.4 °F 100% 29.99 in 0.2 mi East 12.7 mph - 0.03 in Fog , Snow Snow
12:51 PM 28.4 °F 18.0 °F 28.4 °F 100% 29.98 in 0.8 mi East 12.7 mph - 0.03 in Snow Light Snow
12:53 PM 28.9 °F 19.2 °F 28.0 °F 96% 30.03 in 1.0 mi East 11.5 mph - 0.03 in Snow Light Snow
1:10 PM 28.4 °F 18.0 °F 28.4 °F 100% 29.97 in 0.8 mi ESE 12.7 mph - 0.00 in Snow Light Snow
1:26 PM 28.4 °F 18.5 °F 28.4 °F 100% 29.96 in 1.2 mi ESE 11.5 mph - 0.00 in Snow Light Snow
1:53 PM 30.0 °F 19.5 °F 28.9 °F 96% 29.99 in 0.8 mi East 13.8 mph - 0.00 in Snow Light Snow
2:01 PM 30.2 °F 19.3 °F 28.4 °F 93% 29.94 in 1.0 mi ESE 15.0 mph - 0.00 in Snow Light Snow
2:22 PM 30.2 °F 19.3 °F 30.2 °F 100% 29.93 in 0.8 mi ESE 15.0 mph - 0.00 in Snow Light Snow
2:53 PM 30.0 °F 19.1 °F 30.0 °F 100% 29.96 in 0.8 mi East 15.0 mph 24.2 mph 0.00 in Snow Light Snow
3:11 PM 30.2 °F 19.8 °F 30.2 °F 100% 29.91 in 0.5 mi ESE 13.8 mph - 0.00 in Fog , Snow Light Snow
3:44 PM 30.2 °F 20.2 °F 30.2 °F 100% 29.89 in 0.2 mi ESE 12.7 mph - 0.01 in Fog , Snow Light Snow
3:53 PM 30.9 °F 21.2 °F 30.9 °F 100% 29.93 in 0.2 mi ESE 12.7 mph - 0.01 in Fog , Snow Snow
4:16 PM 30.2 °F 19.3 °F 30.2 °F 100% 29.86 in 0.2 mi ESE 15.0 mph - 0.01 in Fog , Snow Light Snow
4:53 PM 30.9 °F 20.7 °F 30.9 °F 100% 29.90 in 0.2 mi ESE 13.8 mph - 0.01 in Fog , Snow Snow
5:53 PM 30.9 °F 22.2 °F 30.9 °F 100% 29.87 in 0.2 mi ESE 10.4 mph - 0.02 in Fog , Snow Snow
6:03 PM 30.2 °F 21.3 °F 30.2 °F 100% 29.82 in 0.2 mi ESE 10.4 mph - 0.00 in Fog , Snow Snow
6:34 PM 30.2 °F 21.3 °F 30.2 °F 100% 29.81 in 0.2 mi ESE 10.4 mph - 0.01 in Fog , Snow Snow
6:53 PM 30.9 °F 23.5 °F 30.9 °F 100% 29.85 in 0.2 mi East 8.1 mph - 0.02 in Fog , Snow Light Snow
7:53 PM 30.9 °F 24.3 °F 30.9 °F 100% 29.84 in 0.2 mi East 6.9 mph - 0.03 in Fog , Snow Snow
8:02 PM 30.2 °F 22.6 °F 30.2 °F 100% 29.79 in 0.2 mi East 8.1 mph - 0.01 in Fog , Snow Snow
8:53 PM 30.9 °F 24.3 °F 30.9 °F 100% 29.82 in 0.2 mi ESE 6.9 mph - 0.07 in Fog , Snow Snow
9:53 PM 32.0 °F 25.6 °F 32.0 °F 100% 29.81 in 0.2 mi SE 6.9 mph - 0.01 in Fog , Rain Light Freezing Rain
10:06 PM 32.0 °F 27.5 °F 32.0 °F 100% 29.77 in 0.5 mi SSE 4.6 mph - 0.00 in Fog , Rain Light Freezing Rain
10:30 PM 32.0 °F 26.4 °F 32.0 °F 100% 29.77 in 2.0 mi South 5.8 mph - 0.00 in Rain Light Freezing Rain
10:39 PM 32.0 °F 25.6 °F 32.0 °F 100% 29.76 in 4.0 mi South 6.9 mph - 0.00 in Rain Light Freezing Rain
10:53 PM 32.0 °F 24.2 °F 32.0 °F 100% 29.80 in 5.0 mi South 9.2 mph - 0.00 in   Overcast
11:13 PM 32.0 °F 24.8 °F 32.0 °F 100% 29.75 in 8.0 mi South 8.1 mph - N/A   Overcast
11:53 PM 32.0 °F 24.2 °F 32.0 °F 100% 29.79 in 9.0 mi South 9.2 mph - N/A   Overcast